| time (UTC) | temp F | wind direction | speed MPH | gust MPH | rain 1hr in | rain 24hr in | rain mn in | humidity % | barometer mb |
| 20260507092318 | 57 | 16 | 0.0 | 3.0 | 0.00 | 0.02 | 0.02 | 92 | 1012.4 |
| 20260507091814 | 57 | 116 | 1.0 | 5.0 | 0.00 | 0.02 | 0.02 | 92 | 1011.9 |
| 20260507091310 | 57 | 72 | 2.0 | 2.0 | 0.00 | 0.02 | 0.02 | 94 | 1012.1 |
| 20260507090805 | 57 | 302 | 2.0 | 3.0 | 0.02 | 0.02 | 0.02 | 94 | 1012.1 |
| 20260507090302 | 57 | 345 | 1.0 | 3.0 | 0.00 | 0.02 | 0.02 | 93 | 1012.3 |
| 20260507085759 | 57 | 352 | 1.0 | 6.0 | 0.00 | 0.02 | 0.02 | 93 | 1012.4 |
| 20260507085256 | 58 | 285 | 2.0 | 2.0 | 0.05 | 0.02 | 0.02 | 93 | 1012.0 |
| 20260507084754 | 58 | 7 | 2.0 | 3.0 | 0.02 | 0.01 | 0.01 | 93 | 1012.2 |
| 20260507084249 | 58 | 286 | 1.0 | 4.0 | 0.00 | 0.01 | 0.01 | 93 | 1012.2 |
| 20260507083747 | 59 | 125 | 0.0 | 3.0 | 0.02 | 0.01 | 0.01 | 93 | 1011.8 |
| 20260507083244 | 59 | 3 | 0.0 | 4.0 | 0.02 | 0.01 | 0.01 | 93 | 1012.1 |
| 20260507082740 | 59 | 140 | 2.0 | 4.0 | 0.00 | 0.00 | 0.00 | 93 | 1012.0 |
| 20260507082236 | 59 | 76 | 3.0 | 4.0 | 0.00 | 0.00 | 0.00 | 93 | 1011.9 |
| 20260507081733 | 60 | 126 | 1.0 | 4.0 | 0.00 | 0.00 | 0.00 | 94 | 1012.0 |
| 20260507081229 | 60 | 341 | 1.0 | 3.0 | 0.00 | 0.00 | 0.00 | 95 | 1012.0 |
| 20260507080725 | 61 | 353 | 2.0 | 4.0 | 0.00 | 0.00 | 0.00 | 95 | 1011.8 |
| 20260507080221 | 61 | 8 | 2.0 | 3.0 | 0.00 | 0.00 | 0.00 | 95 | 1011.8 |
| 20260507075717 | 63 | 306 | 3.0 | 4.0 | 0.00 | 0.00 | 0.00 | 96 | 1011.3 |
| 20260507075214 | 64 | 334 | 2.0 | 3.0 | 0.00 | 0.00 | 0.00 | 96 | 1011.1 |
| 20260507074710 | 64 | 321 | 0.0 | 3.0 | 0.00 | 0.00 | 0.00 | 97 | 1010.8 |
| 20260507074209 | 65 | 193 | 0.0 | 3.0 | 0.00 | 0.00 | 0.00 | 97 | 1011.0 |
| 20260507073704 | 65 | 40 | 0.0 | 3.0 | 0.00 | 0.00 | 0.00 | 96 | 1010.9 |
| 20260507073201 | 65 | 44 | 0.0 | 2.0 | 0.00 | 0.00 | 0.00 | 96 | 1010.9 |
| 20260507072659 | 65 | 324 | 0.0 | 2.0 | 0.00 | 0.00 | 0.00 | 96 | 1010.9 |
| 20260507072156 | 66 | 315 | 1.0 | 2.0 | 0.00 | 0.00 | 0.00 | 96 | 1011.0 |
| 20260507071654 | 66 | 89 | 0.0 | 2.0 | 0.00 | 0.00 | 0.00 | 96 | 1011.1 |
| 20260507071149 | 66 | 354 | 0.0 | 0.0 | 0.00 | 0.00 | 0.00 | 96 | 1011.0 |
| 20260507070647 | 66 | 287 | 0.0 | 1.0 | 0.00 | 0.00 | 0.00 | 96 | 1011.0 |
| 20260507070143 | 66 | 339 | 0.0 | 2.0 | 0.00 | 0.00 | 0.00 | 96 | 1011.1 |
| 20260507065640 | 66 | 315 | 0.0 | 2.0 | 0.00 | 0.00 | 0.00 | 95 | 1011.0 |
| 20260507065137 | 66 | 7 | 0.0 | 2.0 | 0.00 | 0.00 | 0.00 | 95 | 1010.6 |
| 20260507064634 | 66 | 321 | 0.0 | 1.0 | 0.00 | 0.00 | 0.00 | 94 | 1010.6 |
| 20260507064133 | 66 | 305 | 1.0 | 1.0 | 0.00 | 0.00 | 0.00 | 94 | 1010.4 |
| 20260507063630 | 67 | 335 | 0.0 | 1.0 | 0.02 | 0.00 | 0.00 | 93 | 1010.4 |
| 20260507063127 | 67 | 230 | 0.0 | 1.0 | 0.02 | 0.00 | 0.00 | 93 | 1010.4 |
| 20260507062624 | 67 | 326 | 0.0 | 1.0 | 0.00 | 0.00 | 0.00 | 92 | 1010.3 |
| 20260507062121 | 67 | 317 | 0.0 | 1.0 | 0.00 | 0.00 | 0.00 | 91 | 1010.2 |
| 20260507061619 | 67 | 235 | 0.0 | 0.0 | 0.00 | 0.00 | 0.00 | 91 | 1009.9 |
| 20260507061117 | 67 | 193 | 0.0 | 2.0 | 0.00 | 0.00 | 0.00 | 91 | 1009.8 |
| 20260507060615 | 67 | 314 | 0.0 | 1.0 | 0.00 | 0.00 | 0.00 | 91 | 1009.8 |
| 20260507060111 | 67 | 0 | 0.0 | 1.0 | 0.00 | 0.00 | 0.00 | 91 | 1009.8 |
| 20260507055606 | 67 | 209 | 0.0 | 2.0 | 0.00 | 0.00 | 0.00 | 92 | 1010.1 |
| 20260507055103 | 67 | 211 | 0.0 | 1.0 | 0.00 | 0.00 | 0.00 | 92 | 1010.2 |
| 20260507054558 | 68 | 169 | 1.0 | 2.0 | 0.00 | 0.00 | 0.00 | 90 | 1010.2 |
| 20260507054056 | 68 | 233 | 0.0 | 2.0 | 0.00 | 0.00 | 0.00 | 89 | 1009.8 |
| 20260507053554 | 68 | 235 | 0.0 | 2.0 | 0.00 | 0.00 | 0.00 | 89 | 1009.9 |
| 20260507053052 | 68 | 256 | 0.0 | 2.0 | 0.00 | 0.00 | 0.00 | 89 | 1010.3 |
| 20260507052549 | 68 | 200 | 0.0 | 2.0 | 0.00 | 0.00 | 0.00 | 89 | 1010.0 |
| 20260507052046 | 68 | 213 | 0.0 | 2.0 | 0.00 | 0.00 | 0.00 | 88 | 1010.3 |
| 20260507051544 | 68 | 230 | 0.0 | 1.0 | 0.00 | 0.00 | 0.00 | 88 | 1010.4 |
| 20260507051040 | 68 | 180 | 0.0 | 2.0 | 0.00 | 0.00 | 0.00 | 88 | 1010.4 |
| 20260507050537 | 68 | 224 | 2.0 | 2.0 | 0.00 | 0.00 | 0.00 | 88 | 1010.9 |
| 20260507050033 | 68 | 238 | 2.0 | 4.0 | 0.00 | 0.00 | 0.00 | 88 | 1010.9 |
| 20260507045530 | 68 | 269 | 0.0 | 3.0 | 0.00 | 0.00 | 0.00 | 88 | 1011.0 |
| 20260507045027 | 68 | 286 | 0.0 | 2.0 | 0.00 | 0.00 | 0.00 | 89 | 1011.1 |
| 20260507044524 | 68 | 267 | 0.0 | 2.0 | 0.00 | 0.00 | 0.00 | 89 | 1011.1 |
| 20260507044021 | 68 | 200 | 2.0 | 2.0 | 0.00 | 0.00 | 0.00 | 89 | 1011.2 |
| 20260507043517 | 68 | 242 | 0.0 | 2.0 | 0.00 | 0.00 | 0.00 | 89 | 1011.1 |
| 20260507043014 | 68 | 217 | 0.0 | 2.0 | 0.00 | 0.00 | 0.00 | 89 | 1011.5 |
| 20260507042510 | 68 | 277 | 0.0 | 2.0 | 0.00 | 0.00 | 0.00 | 89 | 1011.6 |
| 20260507042006 | 68 | 122 | 0.0 | 2.0 | 0.00 | 0.00 | 0.00 | 89 | 1011.5 |
| 20260507041503 | 68 | 214 | 0.0 | 2.0 | 0.00 | 0.00 | 0.00 | 89 | 1011.3 |
| 20260507041000 | 68 | 255 | 0.0 | 2.0 | 0.00 | 0.00 | 0.00 | 89 | 1010.9 |
| 20260507040455 | 68 | 309 | 0.0 | 1.0 | 0.00 | 0.00 | 0.00 | 89 | 1010.7 |
| 20260507035951 | 68 | 269 | 0.0 | 2.0 | 0.00 | 0.09 | 0.09 | 88 | 1011.3 |
| 20260507035448 | 68 | 242 | 0.0 | 2.0 | 0.00 | 0.09 | 0.09 | 88 | 1011.1 |
| 20260507034945 | 68 | 269 | 0.0 | 2.0 | 0.00 | 0.09 | 0.09 | 88 | 1011.1 |
| 20260507034442 | 68 | 155 | 0.0 | 4.0 | 0.00 | 0.09 | 0.09 | 88 | 1011.5 |
| 20260507033940 | 68 | 205 | 0.0 | 3.0 | 0.00 | 0.09 | 0.09 | 88 | 1011.6 |
| 20260507033438 | 68 | 52 | 0.0 | 2.0 | 0.00 | 0.09 | 0.09 | 88 | 1011.5 |
| 20260507032934 | 68 | 244 | 1.0 | 2.0 | 0.00 | 0.09 | 0.09 | 88 | 1011.1 |
| 20260507032431 | 68 | 254 | 1.0 | 2.0 | 0.00 | 0.09 | 0.09 | 88 | 1011.0 |
| 20260507031927 | 68 | 0 | 0.0 | 3.0 | 0.00 | 0.09 | 0.09 | 87 | 1011.1 |
| 20260507031426 | 68 | 250 | 1.0 | 2.0 | 0.00 | 0.09 | 0.09 | 87 | 1010.8 |
| 20260507030921 | 69 | 302 | 0.0 | 4.0 | 0.00 | 0.09 | 0.09 | 87 | 1010.9 |
| 20260507030418 | 69 | 301 | 0.0 | 2.0 | 0.00 | 0.09 | 0.09 | 87 | 1010.9 |
| 20260507025915 | 69 | 264 | 1.0 | 2.0 | 0.00 | 0.09 | 0.09 | 87 | 1010.9 |
| 20260507025412 | 69 | 249 | 2.0 | 2.0 | 0.00 | 0.09 | 0.09 | 87 | 1010.6 |
| 20260507024910 | 69 | 235 | 1.0 | 2.0 | 0.00 | 0.09 | 0.09 | 87 | 1010.4 |
| 20260507024407 | 69 | 231 | 3.0 | 4.0 | 0.00 | 0.09 | 0.09 | 87 | 1010.6 |
| 20260507023903 | 69 | 189 | 0.0 | 3.0 | 0.00 | 0.09 | 0.09 | 87 | 1010.7 |
| 20260507023400 | 68 | 224 | 0.0 | 4.0 | 0.00 | 0.09 | 0.09 | 87 | 1010.7 |
| 20260507022857 | 68 | 206 | 3.0 | 3.0 | 0.00 | 0.09 | 0.09 | 87 | 1011.0 |
| 20260507022354 | 68 | 268 | 0.0 | 3.0 | 0.00 | 0.09 | 0.09 | 87 | 1010.8 |
| 20260507021850 | 68 | 175 | 0.0 | 2.0 | 0.00 | 0.09 | 0.09 | 87 | 1011.1 |
| 20260507021345 | 68 | 224 | 3.0 | 4.0 | 0.00 | 0.09 | 0.09 | 87 | 1010.9 |
| 20260507020843 | 68 | 251 | 2.0 | 2.0 | 0.00 | 0.09 | 0.09 | 87 | 1011.2 |
| 20260507020339 | 68 | 278 | 1.0 | 2.0 | 0.00 | 0.09 | 0.09 | 87 | 1011.2 |
| 20260507015836 | 68 | 306 | 2.0 | 2.0 | 0.00 | 0.09 | 0.09 | 87 | 1011.3 |
| 20260507015335 | 68 | 269 | 0.0 | 2.0 | 0.00 | 0.09 | 0.09 | 87 | 1011.3 |
| 20260507014831 | 68 | 212 | 0.0 | 2.0 | 0.00 | 0.09 | 0.09 | 87 | 1011.5 |
| 20260507014327 | 68 | 231 | 0.0 | 3.0 | 0.00 | 0.09 | 0.09 | 87 | 1011.4 |
| 20260507013824 | 68 | 197 | 1.0 | 2.0 | 0.00 | 0.09 | 0.09 | 87 | 1011.1 |
| 20260507013321 | 68 | 205 | 0.0 | 2.0 | 0.00 | 0.09 | 0.09 | 87 | 1011.5 |
| 20260507012819 | 68 | 203 | 1.0 | 2.0 | 0.00 | 0.09 | 0.09 | 87 | 1011.3 |
| 20260507012314 | 68 | 220 | 0.0 | 2.0 | 0.00 | 0.09 | 0.09 | 86 | 1011.5 |
| 20260507011806 | 68 | 239 | 2.0 | 3.0 | 0.00 | 0.09 | 0.09 | 86 | 1011.2 |
| 20260507011303 | 68 | 269 | 1.0 | 2.0 | 0.00 | 0.09 | 0.09 | 87 | 1011.4 |
| 20260507010802 | 68 | 249 | 0.0 | 1.0 | 0.00 | 0.09 | 0.09 | 87 | 1011.4 |
| 20260507010258 | 68 | 260 | 0.0 | 1.0 | 0.00 | 0.09 | 0.09 | 86 | 1011.3 |
| 20260507005756 | 68 | 247 | 2.0 | 3.0 | 0.00 | 0.09 | 0.09 | 86 | 1010.9 |
| 20260507005252 | 68 | 228 | 0.0 | 2.0 | 0.00 | 0.09 | 0.09 | 86 | 1010.7 |
| 20260507004749 | 68 | 266 | 0.0 | 1.0 | 0.00 | 0.09 | 0.09 | 86 | 1011.1 |
| 20260507004247 | 68 | 221 | 3.0 | 3.0 | 0.00 | 0.09 | 0.09 | 86 | 1011.1 |
| 20260507003743 | 68 | 200 | 1.0 | 3.0 | 0.00 | 0.09 | 0.09 | 85 | 1011.0 |
| 20260507003238 | 69 | 182 | 0.0 | 2.0 | 0.00 | 0.09 | 0.09 | 85 | 1011.3 |
| 20260507002734 | 69 | 230 | 3.0 | 4.0 | 0.00 | 0.09 | 0.09 | 85 | 1011.4 |
| 20260507002230 | 69 | 263 | 3.0 | 3.0 | 0.00 | 0.09 | 0.09 | 85 | 1011.1 |
| 20260507001727 | 69 | 240 | 0.0 | 2.0 | 0.00 | 0.09 | 0.09 | 84 | 1011.3 |
| 20260507001225 | 69 | 194 | 2.0 | 5.0 | 0.00 | 0.09 | 0.09 | 84 | 1011.2 |
| 20260507000721 | 69 | 221 | 2.0 | 2.0 | 0.00 | 0.09 | 0.09 | 84 | 1011.2 |
| 20260507000216 | 69 | 157 | 1.0 | 4.0 | 0.00 | 0.09 | 0.09 | 83 | 1011.3 |
| 20260506235714 | 69 | 283 | 0.0 | 2.0 | 0.00 | 0.09 | 0.09 | 84 | 1011.1 |
| 20260506235209 | 69 | 204 | 1.0 | 2.0 | 0.00 | 0.09 | 0.09 | 83 | 1011.0 |
| 20260506234706 | 69 | 123 | 0.0 | 2.0 | 0.00 | 0.09 | 0.09 | 82 | 1011.2 |
| 20260506234204 | 69 | 208 | 3.0 | 3.0 | 0.00 | 0.09 | 0.09 | 82 | 1010.9 |
| 20260506233701 | 70 | 269 | 0.0 | 2.0 | 0.00 | 0.09 | 0.09 | 82 | 1010.8 |
| 20260506233157 | 70 | 245 | 1.0 | 4.0 | 0.00 | 0.09 | 0.09 | 81 | 1011.1 |
| 20260506232654 | 70 | 151 | 0.0 | 2.0 | 0.00 | 0.09 | 0.09 | 81 | 1010.8 |
| 20260506232149 | 70 | 216 | 2.0 | 4.0 | 0.00 | 0.09 | 0.09 | 81 | 1010.8 |
| 20260506231646 | 70 | 221 | 0.0 | 3.0 | 0.00 | 0.09 | 0.09 | 80 | 1010.7 |
| 20260506231145 | 70 | 252 | 1.0 | 4.0 | 0.00 | 0.09 | 0.09 | 80 | 1010.9 |
| 20260506230641 | 70 | 189 | 0.0 | 3.0 | 0.00 | 0.09 | 0.09 | 79 | 1010.7 |
| 20260506230138 | 70 | 216 | 2.0 | 3.0 | 0.00 | 0.09 | 0.09 | 79 | 1010.6 |
| 20260506225635 | 70 | 220 | 1.0 | 4.0 | 0.00 | 0.09 | 0.09 | 79 | 1010.8 |
| 20260506225131 | 70 | 148 | 2.0 | 5.0 | 0.00 | 0.09 | 0.09 | 79 | 1010.8 |
| 20260506224628 | 70 | 173 | 2.0 | 4.0 | 0.00 | 0.09 | 0.09 | 79 | 1010.7 |
| 20260506224124 | 70 | 230 | 0.0 | 3.0 | 0.00 | 0.09 | 0.09 | 80 | 1011.1 |
| 20260506223621 | 70 | 206 | 0.0 | 2.0 | 0.00 | 0.09 | 0.09 | 80 | 1010.9 |
| 20260506223117 | 70 | 246 | 2.0 | 4.0 | 0.00 | 0.09 | 0.09 | 79 | 1010.8 |
| 20260506222614 | 70 | 230 | 0.0 | 5.0 | 0.00 | 0.09 | 0.09 | 80 | 1011.0 |
| 20260506222110 | 70 | 277 | 2.0 | 2.0 | 0.00 | 0.09 | 0.09 | 80 | 1010.9 |
| 20260506221608 | 70 | 254 | 1.0 | 3.0 | 0.00 | 0.09 | 0.09 | 79 | 1011.1 |
| 20260506221106 | 70 | 226 | 2.0 | 6.0 | 0.00 | 0.09 | 0.09 | 78 | 1010.9 |
| 20260506220602 | 70 | 208 | 2.0 | 4.0 | 0.00 | 0.09 | 0.09 | 79 | 1011.1 |
| 20260506220057 | 70 | 279 | 3.0 | 5.0 | 0.00 | 0.09 | 0.09 | 79 | 1010.7 |
| 20260506215554 | 70 | 240 | 2.0 | 3.0 | 0.00 | 0.09 | 0.09 | 79 | 1010.6 |
| 20260506215050 | 70 | 269 | 0.0 | 3.0 | 0.00 | 0.09 | 0.09 | 79 | 1011.0 |
| 20260506214547 | 70 | 190 | 4.0 | 4.0 | 0.00 | 0.09 | 0.09 | 79 | 1010.6 |
| 20260506214044 | 70 | 211 | 2.0 | 5.0 | 0.00 | 0.09 | 0.09 | 79 | 1010.9 |
| 20260506213543 | 71 | 226 | 2.0 | 6.0 | 0.00 | 0.09 | 0.09 | 78 | 1010.7 |
| 20260506213040 | 71 | 241 | 2.0 | 5.0 | 0.00 | 0.09 | 0.09 | 79 | 1010.7 |
| 20260506212536 | 71 | 220 | 3.0 | 4.0 | 0.00 | 0.09 | 0.09 | 79 | 1010.7 |
| 20260506212031 | 70 | 220 | 2.0 | 6.0 | 0.00 | 0.09 | 0.09 | 79 | 1011.1 |
| 20260506211527 | 71 | 239 | 3.0 | 9.0 | 0.00 | 0.09 | 0.09 | 79 | 1010.9 |
| 20260506211024 | 70 | 272 | 2.0 | 6.0 | 0.00 | 0.09 | 0.09 | 80 | 1010.9 |
| 20260506210521 | 70 | 208 | 2.0 | 6.0 | 0.00 | 0.09 | 0.09 | 81 | 1011.0 |
| 20260506210017 | 71 | 229 | 2.0 | 3.0 | 0.00 | 0.09 | 0.09 | 81 | 1011.1 |
| 20260506205514 | 70 | 258 | 2.0 | 6.0 | 0.00 | 0.09 | 0.09 | 81 | 1010.9 |
| 20260506205009 | 70 | 265 | 1.0 | 4.0 | 0.00 | 0.09 | 0.09 | 82 | 1011.0 |
| 20260506204508 | 70 | 211 | 2.0 | 4.0 | 0.00 | 0.09 | 0.09 | 82 | 1010.8 |
| 20260506204004 | 70 | 212 | 2.0 | 5.0 | 0.00 | 0.09 | 0.09 | 82 | 1011.1 |
| 20260506203502 | 69 | 252 | 2.0 | 2.0 | 0.00 | 0.09 | 0.09 | 83 | 1011.1 |
| 20260506202958 | 69 | 279 | 1.0 | 2.0 | 0.00 | 0.09 | 0.09 | 84 | 1010.7 |
| 20260506202456 | 68 | 211 | 2.0 | 3.0 | 0.00 | 0.09 | 0.09 | 84 | 1010.9 |
| 20260506201946 | 68 | 212 | 0.0 | 1.0 | 0.00 | 0.09 | 0.09 | 86 | 1010.8 |
| 20260506201444 | 68 | 191 | 1.0 | 1.0 | 0.00 | 0.09 | 0.09 | 86 | 1011.3 |
| 20260506200941 | 68 | 290 | 0.0 | 3.0 | 0.00 | 0.09 | 0.09 | 86 | 1011.3 |
| 20260506200437 | 68 | 278 | 0.0 | 2.0 | 0.00 | 0.09 | 0.09 | 86 | 1011.4 |
| 20260506195933 | 68 | 72 | 0.0 | 1.0 | 0.00 | 0.09 | 0.09 | 87 | 1011.1 |
| 20260506195430 | 68 | 235 | 0.0 | 3.0 | 0.00 | 0.09 | 0.09 | 86 | 1011.2 |
| 20260506194927 | 68 | 204 | 2.0 | 2.0 | 0.00 | 0.09 | 0.09 | 86 | 1010.7 |
| 20260506194424 | 67 | 290 | 0.0 | 3.0 | 0.00 | 0.09 | 0.09 | 87 | 1010.8 |
| 20260506193921 | 67 | 264 | 0.0 | 3.0 | 0.00 | 0.09 | 0.09 | 86 | 1010.6 |
| 20260506193419 | 67 | 221 | 0.0 | 5.0 | 0.00 | 0.09 | 0.09 | 86 | 1010.5 |
| 20260506192915 | 67 | 238 | 1.0 | 2.0 | 0.00 | 0.09 | 0.09 | 87 | 1010.6 |
| 20260506192412 | 67 | 201 | 0.0 | 3.0 | 0.00 | 0.09 | 0.09 | 87 | 1010.7 |
| 20260506191909 | 67 | 173 | 2.0 | 4.0 | 0.00 | 0.09 | 0.09 | 87 | 1010.8 |
| 20260506191405 | 66 | 308 | 2.0 | 3.0 | 0.00 | 0.09 | 0.09 | 88 | 1011.1 |
| 20260506190902 | 66 | 198 | 2.0 | 3.0 | 0.00 | 0.09 | 0.09 | 88 | 1011.1 |
| 20260506190358 | 66 | 150 | 0.0 | 3.0 | 0.00 | 0.09 | 0.09 | 89 | 1011.4 |
| 20260506185855 | 66 | 340 | 2.0 | 3.0 | 0.00 | 0.09 | 0.09 | 89 | 1011.4 |
| 20260506185352 | 65 | 216 | 0.0 | 5.0 | 0.00 | 0.09 | 0.09 | 89 | 1011.7 |
| 20260506184849 | 65 | 221 | 5.0 | 8.0 | 0.00 | 0.09 | 0.09 | 89 | 1011.6 |
| 20260506184346 | 65 | 301 | 2.0 | 4.0 | 0.00 | 0.09 | 0.09 | 90 | 1011.6 |
| 20260506183844 | 65 | 177 | 0.0 | 3.0 | 0.00 | 0.09 | 0.09 | 90 | 1011.6 |
| 20260506183339 | 65 | 214 | 3.0 | 3.0 | 0.00 | 0.09 | 0.09 | 90 | 1011.8 |
| 20260506182836 | 65 | 293 | 2.0 | 3.0 | 0.00 | 0.09 | 0.09 | 91 | 1011.6 |
| 20260506182333 | 65 | 255 | 2.0 | 6.0 | 0.00 | 0.09 | 0.09 | 90 | 1011.6 |
| 20260506181831 | 65 | 200 | 2.0 | 7.0 | 0.00 | 0.09 | 0.09 | 88 | 1011.6 |
| 20260506181329 | 65 | 211 | 5.0 | 10.0 | 0.00 | 0.09 | 0.09 | 88 | 1012.0 |
| 20260506180826 | 66 | 139 | 3.0 | 6.0 | 0.00 | 0.09 | 0.09 | 88 | 1012.1 |
| 20260506180321 | 66 | 300 | 1.0 | 5.0 | 0.00 | 0.09 | 0.09 | 88 | 1012.3 |
| 20260506175818 | 66 | 242 | 2.0 | 3.0 | 0.00 | 0.09 | 0.09 | 88 | 1012.4 |
| 20260506175315 | 66 | 180 | 0.0 | 3.0 | 0.00 | 0.09 | 0.09 | 89 | 1012.2 |
| 20260506174812 | 66 | 186 | 2.0 | 4.0 | 0.00 | 0.09 | 0.09 | 89 | 1012.3 |
| 20260506174309 | 65 | 144 | 3.0 | 5.0 | 0.00 | 0.09 | 0.09 | 89 | 1012.5 |
| 20260506173807 | 65 | 248 | 2.0 | 5.0 | 0.00 | 0.09 | 0.09 | 90 | 1012.3 |
| 20260506173304 | 65 | 194 | 2.0 | 6.0 | 0.00 | 0.09 | 0.09 | 89 | 1012.3 |
| 20260506172801 | 65 | 229 | 3.0 | 4.0 | 0.00 | 0.09 | 0.09 | 91 | 1012.1 |
| 20260506172257 | 64 | 248 | 2.0 | 6.0 | 0.00 | 0.09 | 0.09 | 91 | 1012.1 |
| 20260506171755 | 64 | 218 | 2.0 | 3.0 | 0.00 | 0.09 | 0.09 | 93 | 1012.1 |
| 20260506171251 | 64 | 238 | 4.0 | 4.0 | 0.00 | 0.09 | 0.09 | 92 | 1012.1 |
| 20260506170749 | 64 | 228 | 2.0 | 4.0 | 0.00 | 0.09 | 0.09 | 92 | 1012.0 |
| 20260506170245 | 64 | 203 | 2.0 | 8.0 | 0.00 | 0.09 | 0.09 | 92 | 1012.2 |
| 20260506165744 | 64 | 126 | 3.0 | 4.0 | 0.00 | 0.09 | 0.09 | 93 | 1012.6 |
| 20260506165241 | 64 | 238 | 0.0 | 5.0 | 0.00 | 0.09 | 0.09 | 93 | 1012.9 |
| 20260506164738 | 64 | 313 | 1.0 | 5.0 | 0.00 | 0.09 | 0.09 | 94 | 1012.4 |
| 20260506164235 | 64 | 269 | 0.0 | 2.0 | 0.00 | 0.09 | 0.09 | 94 | 1012.6 |
| 20260506163731 | 64 | 197 | 4.0 | 4.0 | 0.02 | 0.09 | 0.09 | 93 | 1012.9 |
| 20260506163226 | 64 | 202 | 2.0 | 4.0 | 0.00 | 0.08 | 0.08 | 93 | 1013.0 |
| 20260506162723 | 63 | 151 | 3.0 | 5.0 | 0.00 | 0.08 | 0.08 | 93 | 1012.9 |
| 20260506162220 | 63 | 207 | 1.0 | 4.0 | 0.00 | 0.08 | 0.08 | 94 | 1012.8 |
| 20260506161718 | 63 | 269 | 0.0 | 4.0 | 0.02 | 0.08 | 0.08 | 94 | 1012.5 |
| 20260506161215 | 63 | 269 | 0.0 | 2.0 | 0.02 | 0.08 | 0.08 | 95 | 1012.7 |
| 20260506160713 | 62 | 304 | 0.0 | 2.0 | 0.02 | 0.08 | 0.08 | 95 | 1012.5 |
| 20260506160209 | 62 | 185 | 3.0 | 6.0 | 0.02 | 0.08 | 0.08 | 95 | 1012.6 |
| 20260506155707 | 62 | 227 | 2.0 | 3.0 | 0.02 | 0.08 | 0.08 | 95 | 1012.7 |
| 20260506155204 | 62 | 264 | 2.0 | 4.0 | 0.00 | 0.07 | 0.07 | 95 | 1012.6 |
| 20260506153306 | 62 | 240 | 1.0 | 2.0 | 0.00 | 0.07 | 0.07 | 95 | 1012.8 |
| 20260506152803 | 62 | 243 | 2.0 | 5.0 | 0.00 | 0.07 | 0.07 | 95 | 1013.0 |
| 20260506152300 | 62 | 269 | 0.0 | 2.0 | 0.02 | 0.07 | 0.07 | 96 | 1013.3 |
| 20260506151759 | 62 | 286 | 1.0 | 2.0 | 0.02 | 0.07 | 0.07 | 96 | 1013.2 |
| 20260506151255 | 62 | 310 | 0.0 | 4.0 | 0.00 | 0.07 | 0.07 | 96 | 1013.1 |
| 20260506150751 | 61 | 7 | 0.0 | 2.0 | 0.00 | 0.07 | 0.07 | 96 | 1013.2 |
| 20260506150249 | 61 | 283 | 0.0 | 2.0 | 0.00 | 0.07 | 0.07 | 97 | 1013.5 |
| 20260506145746 | 62 | 198 | 2.0 | 3.0 | 0.00 | 0.07 | 0.07 | 97 | 1013.7 |
| 20260506145242 | 61 | 237 | 1.0 | 4.0 | 0.00 | 0.07 | 0.07 | 97 | 1013.5 |
| 20260506144739 | 61 | 186 | 1.0 | 3.0 | 0.00 | 0.07 | 0.07 | 97 | 1013.5 |
| 20260506144236 | 61 | 255 | 0.0 | 4.0 | 0.02 | 0.07 | 0.07 | 97 | 1013.6 |
| 20260506143734 | 60 | 269 | 0.0 | 3.0 | 0.02 | 0.07 | 0.07 | 97 | 1013.6 |
| 20260506143231 | 61 | 259 | 2.0 | 2.0 | 0.05 | 0.07 | 0.07 | 97 | 1013.6 |
| 20260506142730 | 61 | 263 | 1.0 | 2.0 | 0.21 | 0.07 | 0.07 | 96 | 1013.7 |
| 20260506142227 | 61 | 144 | 2.0 | 4.0 | 0.21 | 0.06 | 0.06 | 94 | 1014.0 |
| 20260506141725 | 62 | 198 | 4.0 | 4.0 | 0.14 | 0.04 | 0.04 | 93 | 1013.5 |
| 20260506141224 | 62 | 207 | 2.0 | 3.0 | 0.07 | 0.02 | 0.02 | 91 | 1013.5 |
| 20260506140721 | 62 | 242 | 3.0 | 4.0 | 0.02 | 0.01 | 0.01 | 89 | 1013.6 |
| 20260506140217 | 62 | 188 | 1.0 | 5.0 | 0.02 | 0.01 | 0.01 | 88 | 1013.5 |
| 20260506135714 | 63 | 232 | 2.0 | 5.0 | 0.02 | 0.01 | 0.01 | 87 | 1013.3 |
| 20260506135210 | 63 | 277 | 0.0 | 4.0 | 0.02 | 0.00 | 0.00 | 86 | 1013.3 |
| 20260506134707 | 63 | 212 | 6.0 | 6.0 | 0.00 | 0.00 | 0.00 | 82 | 1013.5 |
| 20260506134203 | 64 | 132 | 0.0 | 5.0 | 0.00 | 0.00 | 0.00 | 79 | 1013.4 |
| 20260506133701 | 65 | 289 | 2.0 | 5.0 | 0.00 | 0.00 | 0.00 | 77 | 1013.4 |
| 20260506133157 | 65 | 171 | 4.0 | 5.0 | 0.00 | 0.00 | 0.00 | 76 | 1013.2 |
| 20260506132655 | 65 | 164 | 1.0 | 3.0 | 0.00 | 0.00 | 0.00 | 77 | 1013.2 |
| 20260506132151 | 65 | 199 | 2.0 | 4.0 | 0.00 | 0.00 | 0.00 | 77 | 1013.2 |
| 20260506131649 | 65 | 264 | 3.0 | 4.0 | 0.00 | 0.00 | 0.00 | 77 | 1013.4 |
| 20260506131145 | 65 | 308 | 1.0 | 2.0 | 0.00 | 0.00 | 0.00 | 76 | 1013.1 |
| 20260506130642 | 65 | 282 | 3.0 | 4.0 | 0.00 | 0.00 | 0.00 | 76 | 1013.3 |
| 20260506130140 | 65 | 256 | 1.0 | 5.0 | 0.00 | 0.00 | 0.00 | 77 | 1013.2 |
| 20260506125638 | 65 | 138 | 3.0 | 4.0 | 0.00 | 0.00 | 0.00 | 78 | 1013.0 |
| 20260506125135 | 64 | 180 | 1.0 | 6.0 | 0.00 | 0.00 | 0.00 | 77 | 1013.2 |
| 20260506124633 | 64 | 287 | 2.0 | 4.0 | 0.00 | 0.00 | 0.00 | 78 | 1012.9 |
| 20260506124130 | 64 | 185 | 0.0 | 3.0 | 0.00 | 0.00 | 0.00 | 79 | 1013.2 |
| 20260506123628 | 64 | 214 | 2.0 | 4.0 | 0.00 | 0.00 | 0.00 | 79 | 1013.2 |
| 20260506123126 | 64 | 141 | 1.0 | 5.0 | 0.00 | 0.00 | 0.00 | 79 | 1013.2 |
| 20260506122622 | 64 | 210 | 3.0 | 4.0 | 0.00 | 0.00 | 0.00 | 79 | 1012.8 |
| 20260506122120 | 65 | 198 | 0.0 | 6.0 | 0.00 | 0.00 | 0.00 | 77 | 1012.9 |
| 20260506121618 | 65 | 178 | 3.0 | 4.0 | 0.00 | 0.00 | 0.00 | 77 | 1012.9 |
| 20260506121114 | 65 | 202 | 2.0 | 7.0 | 0.00 | 0.00 | 0.00 | 76 | 1012.9 |
| 20260506120612 | 65 | 210 | 4.0 | 5.0 | 0.00 | 0.00 | 0.00 | 76 | 1012.9 |
| 20260506120109 | 65 | 215 | 3.0 | 3.0 | 0.00 | 0.00 | 0.00 | 76 | 1012.8 |
| 20260506115608 | 65 | 283 | 3.0 | 5.0 | 0.00 | 0.00 | 0.00 | 76 | 1012.9 |
| 20260506115106 | 65 | 234 | 2.0 | 3.0 | 0.00 | 0.00 | 0.00 | 76 | 1012.9 |
| 20260506114602 | 65 | 168 | 0.0 | 4.0 | 0.00 | 0.00 | 0.00 | 76 | 1012.9 |
| 20260506114101 | 65 | 177 | 2.0 | 5.0 | 0.00 | 0.00 | 0.00 | 76 | 1013.0 |
| 20260506113558 | 65 | 147 | 2.0 | 3.0 | 0.00 | 0.00 | 0.00 | 76 | 1012.9 |
| 20260506113055 | 64 | 168 | 3.0 | 9.0 | 0.00 | 0.00 | 0.00 | 76 | 1012.8 |
| 20260506112552 | 64 | 154 | 4.0 | 5.0 | 0.00 | 0.00 | 0.00 | 76 | 1012.8 |
| 20260506112049 | 64 | 263 | 1.0 | 6.0 | 0.00 | 0.00 | 0.00 | 76 | 1013.0 |
| 20260506111547 | 64 | 9 | 1.0 | 3.0 | 0.00 | 0.00 | 0.00 | 76 | 1012.9 |
| 20260506111044 | 64 | 212 | 6.0 | 6.0 | 0.00 | 0.00 | 0.00 | 76 | 1012.8 |
| 20260506110542 | 64 | 274 | 4.0 | 4.0 | 0.00 | 0.00 | 0.00 | 76 | 1012.9 |
| 20260506110039 | 64 | 174 | 1.0 | 3.0 | 0.00 | 0.00 | 0.00 | 76 | 1012.8 |
| 20260506105535 | 64 | 189 | 1.0 | 5.0 | 0.00 | 0.00 | 0.00 | 76 | 1012.6 |
| 20260506105032 | 64 | 164 | 0.0 | 4.0 | 0.00 | 0.00 | 0.00 | 76 | 1012.7 |
| 20260506104530 | 64 | 204 | 1.0 | 3.0 | 0.00 | 0.00 | 0.00 | 76 | 1012.8 |
| 20260506104028 | 64 | 187 | 2.0 | 6.0 | 0.00 | 0.00 | 0.00 | 76 | 1012.7 |
| 20260506103525 | 64 | 192 | 3.0 | 6.0 | 0.00 | 0.00 | 0.00 | 76 | 1013.1 |
| 20260506103021 | 64 | 220 | 0.0 | 7.0 | 0.00 | 0.00 | 0.00 | 76 | 1012.9 |
| 20260506102520 | 64 | 57 | 0.0 | 2.0 | 0.00 | 0.00 | 0.00 | 76 | 1013.2 |
| 20260506102017 | 64 | 261 | 0.0 | 4.0 | 0.00 | 0.00 | 0.00 | 76 | 1013.3 |
| 20260506101513 | 64 | 243 | 1.0 | 4.0 | 0.00 | 0.00 | 0.00 | 76 | 1013.1 |
| 20260506101011 | 64 | 322 | 1.0 | 3.0 | 0.00 | 0.00 | 0.00 | 76 | 1013.0 |
| 20260506100509 | 64 | 257 | 0.0 | 5.0 | 0.00 | 0.00 | 0.00 | 76 | 1012.9 |
| 20260506100007 | 64 | 231 | 3.0 | 4.0 | 0.00 | 0.00 | 0.00 | 76 | 1013.0 |
| 20260506095505 | 64 | 178 | 0.0 | 6.0 | 0.00 | 0.00 | 0.00 | 76 | 1012.7 |
| 20260506095001 | 64 | 208 | 2.0 | 4.0 | 0.00 | 0.00 | 0.00 | 76 | 1013.0 |
| 20260506094459 | 64 | 309 | 0.0 | 7.0 | 0.00 | 0.00 | 0.00 | 76 | 1013.0 |
| 20260506093956 | 64 | 75 | 0.0 | 4.0 | 0.00 | 0.00 | 0.00 | 77 | 1013.0 |
| 20260506093455 | 64 | 228 | 0.0 | 4.0 | 0.00 | 0.00 | 0.00 | 77 | 1012.7 |
| 20260506092952 | 64 | 273 | 2.0 | 4.0 | 0.00 | 0.00 | 0.00 | 77 | 1012.5 |
| 20260506092450 | 64 | 264 | 3.0 | 5.0 | 0.00 | 0.00 | 0.00 | 77 | 1012.7 |